Theta_e
310 317 318 321 323 324 325 326 325 324 323 321 321 321 324 335 345 342 339 347 346 350 343 338 337 337 336 336 336 337 338 339 339 338 334 332 333 336 337 337 336 336 335 335 334 333 331 330 316
317 318 319 322 320 323 323 325 324 323 321 320 321 322 324 347 336 342 344 346 347 347 346 344 336 337 337 337 339 339 339 340 340 338 335 333 336 336 336 335 335 336 336 334 334 332 333 325 316
314 318 322 320 320 319 322 323 322 320 320 320 323 326 336 321 333 336 342 344 347 346 347 345 336 341 339 338 339 340 340 341 341 339 337 335 336 335 335 335 336 337 335 333 332 333 332 325 321
318 319 317 318 319 319 321 321 320 320 320 319 323 341 324 321 325 328 335 343 344 344 344 342 337 339 339 338 338 339 340 340 341 341 338 336 334 335 335 335 336 335 331 331 332 333 331 327 323
316 318 319 318 318 319 319 318 318 319 319 321 324 340 326 317 326 330 335 337 341 342 342 339 336 336 337 337 337 338 338 339 339 341 341 337 336 336 334 335 335 333 331 331 331 332 329 322 322
319 317 318 317 318 318 319 317 317 317 319 317 321 332 321 316 329 330 331 333 335 339 341 341 338 336 335 334 335 334 334 334 337 339 340 340 338 336 335 335 334 333 331 334 331 331 325 321 320
319 319 318 318 317 317 319 315 316 317 317 314 318 325 319 314 315 325 326 330 332 332 338 339 341 341 334 331 332 334 335 334 335 337 339 338 337 335 335 335 335 334 332 332 331 330 323 319 322
318 318 317 318 318 319 315 315 314 316 313 314 312 313 312 311 313 321 325 325 328 331 332 334 337 337 339 339 338 329 332 334 335 333 337 337 337 336 335 335 333 335 333 331 331 329 323 321 322
316 318 318 318 318 318 315 316 314 315 313 311 310 309 309 310 312 317 325 325 326 330 330 329 334 334 337 337 339 337 330 329 332 334 334 336 338 336 335 335 332 333 335 333 330 328 324 323 324
317 318 319 315 315 315 313 314 313 315 313 310 309 308 308 309 309 311 315 316 324 326 319 321 329 332 333 331 333 336 339 337 337 337 336 335 336 337 336 335 333 332 336 335 331 328 324 326 327
314 316 315 312 311 312 313 313 309 313 313 307 307 307 307 307 308 309 310 309 310 323 316 312 324 329 334 336 334 334 335 335 337 337 337 335 335 337 337 336 335 332 334 334 332 326 325 331 330
314 310 312 311 310 311 313 311 308 307 307 306 305 305 305 305 306 307 307 308 308 310 309 311 313 323 329 333 336 336 337 338 334 336 337 337 336 336 337 337 335 332 332 334 333 330 330 331 330
313 310 309 308 308 309 310 309 308 306 305 305 305 304 304 304 304 304 305 306 306 308 308 310 313 314 318 328 333 335 336 335 338 334 336 337 336 336 335 336 333 331 331 335 333 332 330 331 331
310 309 308 307 307 306 308 308 308 304 304 304 304 304 303 303 303 303 303 304 305 306 307 308 310 312 313 317 325 333 336 337 337 335 335 337 337 336 336 335 332 331 331 335 333 331 332 331 330
309 310 309 307 305 307 303 308 306 303 303 304 303 303 302 302 302 301 302 303 303 305 306 307 308 311 311 314 318 326 332 335 337 336 336 336 337 336 337 335 334 331 335 334 334 331 330 330 331
307 309 309 308 304 303 302 306 303 302 302 302 302 301 301 301 300 300 301 301 302 303 304 305 307 309 309 313 315 318 326 331 335 336 335 335 336 338 336 336 334 333 332 334 333 332 329 330 330
307 304 304 305 305 302 302 304 303 300 300 300 300 300 300 300 299 299 300 301 301 302 303 304 305 307 307 310 313 315 323 329 333 336 335 335 336 336 335 335 334 333 333 332 334 331 328 329 330
301 302 302 302 302 301 301 304 303 300 298 298 298 299 299 298 298 298 298 299 300 301 302 302 304 305 306 308 310 314 321 327 331 335 336 335 335 335 334 335 335 333 333 333 333 330 329 329 330
300 300 301 301 301 299 300 300 301 299 298 297 297 297 298 297 297 297 298 299 299 300 301 301 302 303 304 304 306 311 318 323 329 333 335 336 334 334 334 335 333 333 333 333 331 331 327 329 330
300 300 299 299 300 300 300 301 300 298 297 296 296 296 296 297 297 297 297 298 298 298 299 300 301 302 303 302 303 307 314 319 324 329 333 336 335 334 335 334 333 333 333 332 332 331 328 329 330
299 298 297 297 299 300 299 300 299 298 297 296 296 296 296 295 296 296 297 297 297 298 298 299 300 301 302 302 302 306 311 315 321 326 330 332 335 335 334 333 333 332 333 332 331 330 329 327 329
298 298 298 298 299 299 300 300 297 297 297 296 295 295 295 295 295 295 295 296 297 297 297 298 299 300 301 301 301 302 306 311 315 320 325 332 334 335 334 334 334 332 331 332 331 330 329 328 327
297 298 299 299 299 299 299 298 297 296 295 295 295 294 294 294 294 294 294 295 295 296 296 297 298 299 300 301 301 301 302 306 311 315 321 325 331 332 334 333 333 333 333 332 332 331 329 330 328
299 298 300 299 300 300 297 297 296 295 294 294 294 293 293 293 293 293 293 294 294 294 296 296 297 298 298 299 299 299 300 303 307 311 316 321 326 330 332 333 332 333 333 332 330 329 330 329 329
298 297 298 297 298 301 297 298 295 294 294 294 293 293 293 293 292 292 293 293 293 293 294 296 296 297 297 298 299 298 299 300 303 307 309 315 321 327 329 332 333 330 331 330 330 330 330 329 329
296 297 296 296 296 297 297 296 298 294 293 293 293 293 293 292 292 292 292 292 292 292 292 294 295 296 296 297 298 298 298 299 300 303 307 310 314 319 326 329 330 331 330 331 331 330 330 330 330
296 296 296 296 296 296 298 296 296 295 293 293 293 292 292 292 292 292 291 292 292 291 292 292 294 295 295 296 297 297 297 297 298 300 302 307 311 317 323 324 329 330 329 329 330 330 330 329 329
296 297 296 296 296 295 295 296 297 293 293 293 293 292 292 292 292 291 291 291 291 291 291 292 293 294 295 295 295 296 296 297 297 298 300 303 308 312 318 322 326 327 329 328 329 329 329 328 325
297 296 296 296 296 295 294 295 294 293 293 293 292 292 291 291 291 291 291 291 291 290 290 291 292 293 294 294 295 295 296 296 296 297 298 300 304 309 314 320 323 327 327 330 328 329 329 328 328
297 296 296 295 294 295 294 296 294 293 293 292 292 291 291 291 291 291 290 290 290 290 290 290 291 292 293 293 294 295 295 296 296 296 297 298 301 305 310 316 321 322 326 328 329 327 328 329 329
Wind_Speed
3 7 6 8 8 8 16 10 6 1 3 8 11 9 11 21 22 5 19 19 8 6 5 10 11 11 10 9 8 7 7 9 10 11 13 16 17 19 19 16 15 14 10 11 20 18 17 17 19
1 6 7 12 9 14 12 9 5 8 7 9 8 7 11 11 27 7 10 19 8 4 7 5 8 8 8 8 7 7 7 8 9 10 13 16 18 17 14 13 14 14 14 20 20 18 17 18 20
3 6 15 7 12 13 6 9 7 1 6 7 7 5 11 13 17 11 16 21 4 6 6 4 6 6 5 5 6 6 7 8 8 10 13 16 17 14 11 12 13 16 19 22 20 17 17 18 17
5 7 10 9 15 5 8 7 4 7 3 6 14 15 13 22 16 20 29 16 11 11 7 5 5 4 4 3 3 4 5 7 8 10 13 16 16 12 12 12 14 17 21 21 19 16 16 16 17
5 8 10 12 2 4 2 9 9 8 3 15 15 15 11 19 19 16 23 21 11 12 13 8 2 2 2 3 4 4 5 6 7 10 13 16 16 13 14 14 16 18 20 19 16 16 16 16 17
11 6 9 10 6 2 2 10 9 6 17 23 17 10 13 21 19 13 19 18 18 14 13 9 7 2 3 4 5 5 6 7 8 10 12 15 15 13 15 14 14 19 19 18 14 16 17 17 17
12 7 8 7 2 6 11 11 12 15 19 21 19 9 14 31 29 20 16 11 6 11 7 5 5 5 3 4 6 7 9 9 9 10 11 12 13 16 20 15 15 16 19 17 15 16 18 18 17
11 7 5 5 3 8 6 2 8 14 19 8 20 12 14 26 27 17 9 11 3 10 8 6 3 3 5 4 4 9 11 11 10 11 12 12 14 19 22 21 20 16 19 17 17 19 19 18 16
7 10 5 8 6 12 9 6 10 9 15 23 19 18 17 20 21 21 7 5 6 4 12 14 4 5 4 6 2 5 9 12 12 13 13 14 18 21 24 25 25 20 21 17 20 21 20 18 14
9 9 11 9 11 5 9 16 11 5 14 17 18 18 19 20 22 26 24 24 13 6 19 18 11 5 4 5 7 4 8 8 9 11 15 18 20 23 26 28 27 26 22 18 20 21 20 18 16
9 10 6 10 8 9 4 12 21 15 14 19 19 19 20 21 21 21 19 21 24 11 23 25 14 10 7 6 6 7 6 7 8 11 15 18 21 25 26 28 29 35 23 22 20 22 22 17 14
4 10 10 11 12 11 9 7 16 19 13 13 15 16 17 20 20 20 19 19 18 16 20 21 19 13 11 10 7 8 5 7 10 8 13 16 21 24 26 29 33 36 33 25 23 24 20 19 15
5 8 7 9 9 9 6 8 7 16 14 13 14 16 18 19 19 18 18 17 17 17 20 23 20 18 15 9 10 9 9 7 9 11 10 15 20 21 22 22 27 34 33 29 25 24 22 24 19
6 5 7 7 4 10 8 5 4 17 15 14 16 17 19 20 20 20 21 21 21 20 20 22 21 20 18 14 10 10 11 9 10 11 11 13 19 19 22 21 31 37 33 29 26 26 25 24 24
3 12 13 7 7 5 15 9 11 14 14 15 18 19 20 21 22 22 22 22 21 20 21 22 21 21 21 16 13 10 11 14 11 12 11 12 17 19 19 20 26 35 29 31 29 30 31 28 24
6 8 10 7 8 5 11 1 13 16 18 18 19 20 21 21 22 24 24 22 21 21 23 23 22 23 23 18 15 13 10 13 12 14 13 13 14 21 17 18 23 28 39 31 31 32 33 29 23
5 10 17 17 9 11 11 9 11 16 20 21 22 21 21 22 23 25 25 24 23 22 23 24 25 24 24 20 17 15 11 10 14 13 14 13 14 18 18 18 17 28 33 33 30 32 33 31 24
16 16 14 17 13 13 16 13 6 14 20 24 24 23 22 23 24 25 25 25 24 23 23 23 24 25 25 20 19 16 10 10 13 15 15 13 15 16 17 17 20 26 34 38 43 29 30 30 29
11 13 14 15 14 10 12 10 13 15 18 21 23 24 23 23 23 23 24 24 24 24 25 25 25 26 25 22 22 20 15 10 12 13 14 14 15 16 18 20 17 24 35 38 25 35 35 32 29
15 11 16 17 18 13 13 9 6 12 13 14 19 22 24 26 24 23 24 24 24 24 25 25 25 25 24 24 21 20 19 13 9 14 12 16 15 15 19 17 23 25 29 32 36 36 41 38 34
17 17 20 22 22 17 13 7 5 7 8 13 16 19 20 22 25 26 25 24 24 25 26 25 25 24 22 25 23 20 16 13 12 10 15 18 19 19 21 18 20 25 33 35 39 40 43 42 39
14 21 23 22 17 7 4 2 2 7 10 16 19 20 21 22 22 23 25 25 24 25 24 25 25 24 23 24 25 23 22 22 17 15 15 14 20 20 20 24 21 22 29 45 41 41 40 41 44
18 24 27 16 11 8 2 5 4 14 13 15 19 19 21 22 22 23 24 23 24 25 25 24 25 24 25 24 23 24 21 21 20 17 16 13 18 17 18 22 21 23 27 35 40 30 37 43 44
19 23 25 8 6 5 10 9 7 8 10 14 18 20 20 21 23 23 24 23 25 25 24 24 25 24 24 25 24 23 23 23 21 19 17 14 15 16 17 21 22 25 25 29 34 26 38 41 44
20 20 11 9 6 4 6 5 5 5 9 11 15 18 19 20 22 23 25 26 26 27 26 25 25 25 25 25 25 25 24 22 23 22 21 18 14 11 17 17 20 21 25 19 19 34 25 34 42
18 16 9 11 10 16 3 4 4 2 9 13 16 18 19 19 21 22 24 26 27 28 27 26 25 26 25 25 25 25 26 24 22 23 23 20 19 16 15 12 19 22 23 22 30 25 29 33 41
11 13 16 6 13 11 2 4 4 1 10 14 16 19 20 21 21 22 23 24 26 27 27 27 25 24 24 24 24 25 27 27 26 22 23 21 18 18 19 17 15 25 27 28 24 24 34 35 29
9 8 12 9 6 11 9 9 6 10 10 13 16 18 21 23 23 23 23 24 25 26 26 25 24 23 24 23 23 25 27 27 27 26 23 22 20 18 16 18 17 21 24 25 23 24 27 30 29
7 10 9 12 2 9 7 4 4 4 8 12 17 18 22 25 25 24 25 24 25 25 25 24 24 23 23 23 23 25 26 27 28 27 26 22 19 18 16 18 21 17 19 30 21 30 25 34 31
8 9 9 7 12 10 10 4 1 3 5 13 16 18 21 24 25 25 26 25 25 25 26 24 23 22 22 23 24 24 25 27 27 28 29 22 19 16 15 16 20 16 14 18 28 23 25 30 43
Wind_Direction
321 321 290 251 241 228 251 216 7 160 241 348 308 289 304 28 11 111 317 17 40 89 131 155 157 153 151 152 156 161 168 176 171 173 171 170 170 168 168 174 181 189 207 171 154 164 160 153 143
173 276 256 264 250 239 229 91 133 20 323 305 306 281 246 62 18 50 12 13 8 59 95 122 147 145 146 149 153 160 165 177 181 180 178 175 175 177 188 194 197 189 169 155 158 163 161 152 144
324 258 263 234 234 257 358 79 51 259 277 322 318 268 36 346 6 9 11 4 28 70 134 244 151 132 138 148 156 166 172 184 196 195 191 187 188 199 211 197 188 171 164 163 165 161 158 152 151
270 225 243 252 239 47 356 54 358 283 286 331 333 99 87 12 359 9 32 32 70 69 62 304 160 141 153 160 171 183 188 193 212 213 206 200 203 215 209 190 178 169 167 168 170 162 160 161 156
255 265 262 246 277 38 332 18 330 321 343 15 321 64 70 358 360 27 53 36 60 60 81 69 123 161 192 200 190 204 220 213 217 226 221 214 215 227 210 194 188 173 171 173 174 167 165 157 155
249 274 251 234 148 102 180 10 346 295 17 25 3 35 63 4 7 20 41 50 16 38 63 90 113 12 263 239 231 216 222 224 221 226 226 226 221 221 199 186 186 180 180 181 175 169 166 163 159
280 270 302 325 24 230 39 331 15 18 18 25 355 59 45 8 358 3 20 37 72 357 23 45 91 112 129 292 265 242 237 236 226 225 230 223 224 206 199 201 182 184 190 194 179 176 173 169 162
285 270 249 182 214 92 59 345 18 24 45 16 31 26 5 358 355 2 10 34 146 331 331 349 277 207 145 125 269 273 255 239 235 226 223 221 222 214 206 202 189 201 196 200 188 183 179 173 169
286 263 252 38 327 71 20 293 65 82 67 53 49 36 15 7 7 4 358 15 89 288 325 332 311 272 226 204 345 293 270 253 236 230 220 219 219 213 213 205 194 195 196 203 192 185 180 177 176
297 279 49 24 12 30 54 36 360 278 53 22 23 20 17 18 18 16 10 1 339 6 335 331 323 300 281 246 245 266 254 252 242 230 228 220 221 213 216 208 203 194 193 203 196 187 182 179 181
30 1 13 26 348 299 84 81 27 359 60 19 9 8 12 17 21 21 20 9 3 309 329 326 332 331 309 301 255 248 259 255 241 223 225 221 220 217 217 216 213 201 194 201 195 185 184 170 178
142 34 25 47 24 27 20 92 52 42 27 8 9 10 12 16 16 14 12 7 0 356 333 338 340 336 329 290 273 254 253 283 259 244 232 224 220 220 222 220 206 199 199 202 193 184 179 179 182
35 92 75 65 52 37 62 59 83 31 11 9 8 11 13 13 12 9 4 1 359 353 342 345 344 333 338 305 282 270 258 258 285 253 244 230 227 226 231 233 208 199 200 199 187 181 179 192 182
90 115 93 40 69 48 343 57 326 20 1 6 7 9 9 9 10 6 3 360 355 353 350 350 347 341 337 333 288 251 260 252 248 266 247 236 237 234 227 229 208 201 204 203 183 182 188 190 189
234 217 184 107 16 49 340 208 48 11 8 14 8 5 4 4 5 6 3 359 354 351 347 350 346 343 337 336 321 285 258 258 264 270 264 243 239 247 239 232 225 214 204 206 184 190 198 189 193
301 227 262 149 60 11 329 277 57 15 11 9 6 3 0 0 359 359 360 359 355 350 348 349 348 346 342 343 334 316 275 253 246 271 267 262 247 238 250 256 225 223 208 206 186 194 193 191 186
110 318 308 305 317 10 313 304 61 18 5 1 357 357 357 356 358 357 356 356 357 352 351 348 349 348 343 346 339 324 292 262 238 252 271 270 255 242 265 257 239 218 215 205 202 196 198 197 193
320 318 313 308 4 341 307 295 81 29 8 357 352 349 350 353 354 352 353 354 356 354 353 353 349 348 346 344 342 334 313 263 249 246 246 266 268 263 262 261 244 226 219 223 207 201 205 206 201
309 308 310 343 323 292 308 278 30 19 11 1 351 346 351 350 349 352 352 355 356 355 355 355 352 351 349 345 344 337 330 291 252 249 240 260 269 264 265 264 243 229 220 222 215 222 212 209 202
332 310 334 312 315 289 286 104 59 33 21 12 358 355 348 349 352 353 356 356 357 356 356 357 354 352 351 344 343 337 333 322 295 254 236 235 265 269 255 259 249 242 236 213 219 219 213 215 213
338 359 326 310 298 256 243 85 85 78 40 18 9 360 1 353 347 349 353 356 356 356 355 355 354 353 350 345 341 336 330 310 292 268 248 234 232 242 258 250 247 239 232 215 218 215 216 211 212
336 335 310 298 302 322 306 96 94 27 18 17 2 357 353 355 355 349 349 349 352 354 352 352 353 353 351 349 345 343 341 334 324 306 273 242 239 238 244 247 251 248 236 229 227 222 216 214 218
339 320 311 282 291 269 108 255 33 38 5 5 2 1 352 351 352 352 353 351 348 348 350 350 352 354 352 351 349 346 339 333 324 312 300 272 246 246 238 251 250 257 260 242 236 228 221 216 220
331 340 332 178 265 94 1 318 49 22 360 357 350 351 353 351 348 348 349 350 350 349 350 350 351 352 353 352 349 348 339 333 328 323 307 299 269 244 245 241 257 256 245 263 235 247 239 219 229
360 357 356 359 352 49 326 325 84 18 358 347 344 345 347 348 349 346 348 348 348 349 349 348 349 349 350 351 350 350 346 337 330 325 323 308 292 247 231 234 242 265 266 266 254 244 235 240 228
4 2 357 324 329 313 321 31 136 231 357 351 345 343 342 347 347 346 345 346 346 345 346 345 346 347 348 349 349 349 351 346 333 322 320 318 304 294 250 229 246 246 253 249 248 241 243 244 241
341 9 333 296 301 304 157 164 187 327 8 351 347 349 345 347 344 344 343 344 343 343 342 342 341 343 346 347 348 347 347 348 345 330 320 312 308 292 272 252 231 235 247 243 259 256 228 238 241
4 1 345 342 317 317 327 327 68 16 359 347 341 342 341 344 344 343 340 340 340 340 338 338 340 342 343 345 346 346 344 344 345 343 325 315 306 300 283 265 252 240 240 247 253 252 232 240 246
4 359 338 310 252 323 318 345 184 323 351 344 339 340 341 337 339 342 339 336 334 336 338 339 339 341 343 345 344 346 344 345 344 345 337 321 309 300 290 272 253 250 232 241 242 237 251 241 250
291 340 341 334 331 320 303 348 274 246 352 344 335 337 336 331 336 337 337 333 333 335 337 338 339 339 340 343 343 344 346 344 345 344 340 331 319 309 294 281 258 253 228 221 241 244 254 250 240